Regional Weather Roundup
Issued by NWS

Home | Current Version | Previous Version | Graphics & Text | Print | Product List | Glossary On
Versions: 1 2 3 4 5 6 7 8 9 10 11 12 13 14 15 16 17 18 19 20 21 22 23 24 25 26 27 28 29 30 31 32 33 34 35 36 37 38 39 40 41 42 43 44 45 46 47 48 49 50
000
ASUS43 KMKX 241300
RWRWI

WISCONSIN REGIONAL WEATHER ROUNDUP
NATIONAL WEATHER SERVICE MILWAUKEE/SULLIVAN WI
800 AM CDT SAT JUN 24 2017

NOTE: "FAIR" INDICATES FEW OR NO CLOUDS BELOW 12,000 FEET WITH NO
SIGNIFICANT WEATHER AND/OR OBSTRUCTIONS TO VISIBILITY.

WIZ001-002-006>008-014>016-023>028-241400-
NORTHWEST WISCONSIN

CITY           SKY/WX    TMP DP  RH WIND       PRES   REMARKS
SUPERIOR ARPT  NOT AVBL
ASHLAND        CLOUDY    56  51  84 W9        29.88S
HAYWARD        CLOUDY    54  46  74 VRB6      29.92R
SIREN          CLOUDY    53  44  73 CALM      29.95S
CUMBERLAND     PTSUNNY   52  43  71 W16       29.95S
RICE LAKE      SUNNY     56  46  69 W10       29.96R
CHETEK         SUNNY     56  48  74 W10G17    29.94R
LADYSMITH      CLOUDY    55  49  79 W7        29.93S
EAU CLAIRE     NOT AVBL
MENOMONIE      PTSUNNY   56  48  73 W9        29.97R
NEW RICHMOND   PTSUNNY   54  43  66 W10       29.98R
OSCEOLA        CLOUDY    55  44  64 W9        30.01R
$$

WIZ003>005-009-010-017-018-241400-
NORTH CENTRAL WISCONSIN

CITY           SKY/WX    TMP DP  RH WIND       PRES   REMARKS
MANITOWISH WTR CLOUDY    53  53 100 W7        29.88R
ARBOR VITAE    CLOUDY    57  52  84 NW9       29.87R
WOODRUFF       CLOUDY    57  52  84 NW9       29.87R
RHINELANDER    CLOUDY    55  51  86 W8        29.88R
EAGLE RIVER    CLOUDY    55  49  79 W6        29.86R
LAND O LAKES   CLOUDY    55  52  90 W3        29.88R
PHILLIPS       CLOUDY    54  50  87 W5        29.89R
TOMAHAWK       NOT AVBL
MEDFORD        CLOUDY    52  49  89 W10       29.91S
MERRILL        CLOUDY    55  51  86 NW9G16    29.89S
$$

WIZ029-030-035-036-043>047-241400-
CENTRAL WISCONSIN

CITY           SKY/WX    TMP DP  RH WIND       PRES   REMARKS
WAUSAU         PTSUNNY   56  50  80 NW14G20   29.89R
MOSINEE        PTSUNNY   55  52  88 W12       29.91S
MARSHFIELD     MOSUNNY   56  48  74 NW13      29.91S
STEVENS POINT  MOSUNNY   56  50  78 W9        29.91S
WAUPACA        MOSUNNY   62  52  68 W13       29.90R
WAUTOMA        MOSUNNY   60  52  74 NW13      29.92R
WISC RAPIDS    SUNNY     60  50  69 NW15G21   29.93S
CAMP DOUGLAS   NOT AVBL
$$

WIZ011>013-019>022-031-037>040-048>050-241400-
NORTHEAST WISCONSIN

CITY           SKY/WX    TMP DP  RH WIND       PRES   REMARKS
ANTIGO         LGT RAIN  54  52  93 W12G17    29.87S
SHAWANO        CLOUDY    60  54  79 W6        29.86R
OCONTO         CLOUDY    56  54  92 W5        29.84S
STURGEON BAY     N/A     60  55  83 W10         N/A
GREEN BAY      LGT RAIN  61  57  87 W8        29.86R
MANITOWOC      NOT AVBL
APPLETON       PTSUNNY   59  50  72 W14       29.87R
CLINTONVILLE   CLOUDY    59  52  77 W9        29.87R
OSHKOSH        CLOUDY    60  52  74 W12       29.88R
$$

WIZ032>034-041-042-053>061-241400-
SOUTHWEST WISCONSIN

CITY           SKY/WX    TMP DP  RH WIND       PRES   REMARKS
LA CROSSE      MOSUNNY   65  51  60 NW12      29.96R
SPARTA         SUNNY     60  51  73 NW5       29.96R
VIROQUA        SUNNY     57  53  86 W7        29.97R
BOSCOBEL       SUNNY     63  52  67 NW9       29.98R
PRAIRIE DU CHI SUNNY     60  49  67 NW6       29.99R
PLATTEVILLE    SUNNY     59  54  83 NW9       29.99R
$$

WIZ056-057-062-063-064-067-068-241400-
SOUTH CENTRAL WISCONSIN

CITY           SKY/WX    TMP DP  RH WIND       PRES   REMARKS
REEDSBURG      SUNNY     60  52  76 NW6       29.94R
BARABOO/DELLS  SUNNY     60  50  71 W8        29.94R
LONE ROCK      NOT AVBL
MINERAL POINT  SUNNY     61  55  82 W8        29.97R
MADISON        MOSUNNY   61  53  75 NW9       29.94R
MIDDLETON      SUNNY     61  53  75 NW9G18    29.95R
WATERTOWN      SUNNY     61  55  79 NW15G21   29.91R
MONROE         SUNNY     59  52  77 NW10G16   29.96R
JANESVILLE     MOSUNNY   64  54  68 NW12G17   29.93R
$$

WIZ051-052-058>065-066-070>072-241400-
SOUTHEAST WISCONSIN

CITY           SKY/WX    TMP DP  RH WIND       PRES   REMARKS
MILWAUKEE      MOSUNNY   65  54  67 NW17G23   29.89R
WAUKESHA       MOSUNNY   61  54  77 W12G20    29.92R
MILWAUKEE/TIMM SUNNY     63  52  67 W10G16    29.90R
RACINE         SUNNY     64  53  67 NW15      29.91R
KENOSHA        SUNNY     64  54  69 NW16      29.91R
FOND DU LAC    CLOUDY    61  53  75 W10       29.90R
SHEBOYGAN      MOSUNNY   63  57  81 NW10      29.87R
WEST BEND      SUNNY     61  54  77 W15       29.88S
JUNEAU         MOSUNNY   59  51  75 W12G18    29.92R
$$

LSZ147-162-241400-
LAKE SUPERIOR

STATION/POSITION TIME  TEMP    WIND        PRES    WAVE
                       AIR SEA DIR/SP/G            HT/PER
                 (UTC) (F)     (DEG/KT/KT) (MB)    (FT/S)
W MID LAKE BUOY  1150   45 39  270/ 10/ 12 1010.0R   1/ 4
DEVILS ISLAND    1200   53     240/ 13/ 17 1011.0R
SAXON HARBOR     1240   56     220/  6/ 10 1011.2S
$$

LMZ867-665-643>646-241400-
LAKE MICHIGAN

STATION/POSITION TIME  TEMP    WIND        PRES    WAVE
                       AIR SEA DIR/SP/G            HT/PER
                 (UTC) (F)     (DEG/KT/KT) (MB)    (FT/S)
CHAMBERS ISLAND  1240   60     290/  4/ 11 1009.8R
S GREEN BAY BUOY 1230   59     300/ 14/ 17 1010.3R
N MID LAKE BUOY  1150   58 56  300/  8/  8 1009.5R   1/ 3
NORTHPORT PIER   1240   60     320/ 12/ 14 1009.5S
KEWAUNEE LAKESHO 1230   59     300/  7/ 10 1010.2R
SHEBOYGAN LAKESH 1200   62     300/ 13/ 16 1010.4R
PORT WASHINGTON  1230   64     300/  9/ 17 1012.2R
ATWATER BUOY     1109   60 58  260/ 10/ 14 1011.6R
MILWAUKEE LAKESH 1230   62     290/ 13/ 18   N/A
S MID LAKE BUOY  1150   62 61  320/ 14/ 16 1011.2R   2/ 4
KENOSHA   LAKESH 1200   63     290/ 10/ 15 1012.2
$$

TC  - TEMPERATURE IN CELSIUS
VSB - VISIBILITY IN STATUTE MILES
WCI - WIND CHILL INDEX
HX  - HEAT INDEX





USA.gov is the U.S. government's official web portal to all federal, state and local government web resources and services.